| time (UTC) | temp F | wind direction | speed knots | gust knots | rain 1hr in | rain 24hr in | rain mn in | humidity % | barometer mb |
| 20260507162758 | 61 | 347 | 0.0 | 0.0 | 0.00 | 0.00 | 0.00 | 54 | 1013.5 |
| 20260507161257 | 61 | 328 | 1.7 | 1.7 | 0.00 | 0.00 | 0.00 | 57 | 1013.5 |
| 20260507155756 | 62 | 35 | 0.9 | 0.9 | 0.00 | 0.00 | 0.00 | 51 | 1013.5 |
| 20260507154255 | 62 | 355 | 0.0 | 0.0 | 0.00 | 0.00 | 0.00 | 55 | 1013.5 |
| 20260507152754 | 63 | 322 | 0.0 | 0.0 | 0.00 | 0.00 | 0.00 | 52 | 1013.5 |
| 20260507151254 | 65 | 326 | 1.7 | 1.7 | 0.00 | 0.00 | 0.00 | 49 | 1013.5 |
| 20260507145753 | 65 | 68 | 0.9 | 0.9 | 0.00 | 0.00 | 0.00 | 48 | 1013.5 |
| 20260507144252 | 66 | 336 | 1.7 | 1.7 | 0.00 | 0.00 | 0.00 | 49 | 1013.5 |
| 20260507142751 | 64 | 10 | 0.0 | 0.0 | 0.00 | 0.00 | 0.00 | 52 | 1013.2 |
| 20260507141250 | 66 | 287 | 0.9 | 1.7 | 0.00 | 0.00 | 0.00 | 52 | 1013.2 |
| 20260507135748 | 64 | 356 | 0.9 | 1.7 | 0.00 | 0.00 | 0.00 | 52 | 1013.5 |
| 20260507134248 | 64 | 5 | 0.0 | 0.0 | 0.00 | 0.00 | 0.00 | 51 | 1013.5 |
| 20260507132747 | 61 | 53 | 1.7 | 2.6 | 0.00 | 0.00 | 0.00 | 53 | 1013.5 |
| 20260507131246 | 62 | 67 | 0.0 | 0.0 | 0.00 | 0.00 | 0.00 | 54 | 1013.5 |
| 20260507125745 | 64 | 355 | 1.7 | 2.6 | 0.00 | 0.00 | 0.00 | 53 | 1013.5 |
| 20260507124244 | 63 | 302 | 1.7 | 1.7 | 0.00 | 0.00 | 0.00 | 55 | 1013.5 |
| 20260507122742 | 59 | 354 | 1.7 | 2.6 | 0.00 | 0.00 | 0.00 | 60 | 1013.5 |
| 20260507121241 | 61 | 30 | 0.9 | 1.7 | 0.00 | 0.00 | 0.00 | 62 | 1013.2 |
| 20260507115741 | 60 | 329 | 1.7 | 1.7 | 0.00 | 0.00 | 0.00 | 59 | 1013.2 |
| 20260507114240 | 62 | 274 | 1.7 | 3.5 | 0.00 | 0.00 | 0.00 | 56 | 1013.2 |
| 20260507112738 | 60 | 55 | 0.0 | 0.9 | 0.00 | 0.00 | 0.00 | 60 | 1013.2 |
| 20260507111237 | 60 | 293 | 1.7 | 2.6 | 0.00 | 0.00 | 0.00 | 61 | 1013.2 |
| 20260507105736 | 60 | 77 | 0.9 | 0.9 | 0.00 | 0.00 | 0.00 | 61 | 1013.2 |
| 20260507104235 | 58 | 37 | 3.5 | 5.2 | 0.00 | 0.00 | 0.00 | 61 | 1013.5 |
| 20260507102734 | 58 | 342 | 0.0 | 0.9 | 0.00 | 0.00 | 0.00 | 62 | 1013.5 |
| 20260507101233 | 56 | 350 | 0.0 | 0.9 | 0.00 | 0.00 | 0.00 | 67 | 1013.5 |
| 20260507095732 | 56 | 302 | 1.7 | 1.7 | 0.00 | 0.00 | 0.00 | 66 | 1013.2 |
| 20260507094232 | 56 | 5 | 0.0 | 0.9 | 0.00 | 0.00 | 0.00 | 69 | 1013.2 |
| 20260507092731 | 55 | 63 | 0.9 | 0.9 | 0.00 | 0.00 | 0.00 | 72 | 1012.8 |
| 20260507091230 | 54 | 337 | 2.6 | 5.2 | 0.00 | 0.00 | 0.00 | 72 | 1012.8 |
| 20260507085729 | 55 | 271 | 1.7 | 1.7 | 0.00 | 0.00 | 0.00 | 71 | 1012.8 |
| 20260507084227 | 56 | 81 | 1.7 | 2.6 | 0.00 | 0.00 | 0.00 | 69 | 1012.8 |
| 20260507082727 | 55 | 297 | 2.6 | 3.5 | 0.00 | 0.00 | 0.00 | 72 | 1012.8 |
| 20260507081226 | 54 | 40 | 3.5 | 5.2 | 0.00 | 0.00 | 0.00 | 71 | 1012.5 |
| 20260507075725 | 54 | 331 | 0.9 | 0.9 | 0.00 | 0.00 | 0.00 | 76 | 1012.5 |
| 20260507074224 | 53 | 341 | 0.0 | 0.0 | 0.00 | 0.00 | 0.00 | 77 | 1012.5 |
| 20260507072723 | 51 | 338 | 3.5 | 5.2 | 0.00 | 0.00 | 0.00 | 81 | 1012.5 |
| 20260507071222 | 51 | 341 | 1.7 | 2.6 | 0.00 | 0.00 | 0.00 | 83 | 1012.2 |
| 20260507065722 | 50 | 356 | 0.0 | 0.0 | 0.00 | 0.00 | 0.00 | 84 | 1012.2 |
| 20260507064221 | 50 | 332 | 0.0 | 0.0 | 0.00 | 0.00 | 0.00 | 86 | 1012.2 |
| 20260507062720 | 49 | 69 | 0.0 | 0.0 | 0.00 | 0.00 | 0.00 | 87 | 1011.8 |
| 20260507061219 | 49 | 10 | 0.9 | 1.7 | 0.00 | 0.00 | 0.00 | 87 | 1012.2 |
| 20260507055718 | 48 | 59 | 0.9 | 0.9 | 0.00 | 0.00 | 0.00 | 88 | 1011.8 |
| 20260507054217 | 48 | 282 | 0.0 | 0.0 | 0.00 | 0.00 | 0.00 | 88 | 1011.8 |
| 20260507052717 | 48 | 173 | 0.0 | 0.0 | 0.00 | 0.00 | 0.00 | 88 | 1011.5 |
| 20260507051216 | 48 | 355 | 0.0 | 0.0 | 0.00 | 0.00 | 0.00 | 89 | 1011.5 |
| 20260507045715 | 48 | 47 | 0.0 | 0.0 | 0.00 | 0.00 | 0.00 | 89 | 1011.1 |
| 20260507044214 | 48 | 45 | 0.0 | 0.0 | 0.00 | 0.00 | 0.00 | 88 | 1011.1 |
| 20260507042714 | 48 | 322 | 0.9 | 0.9 | 0.00 | 0.00 | 0.00 | 87 | 1010.8 |
| 20260507041212 | 48 | 340 | 0.0 | 0.9 | 0.00 | 0.00 | 0.00 | 88 | 1010.8 |
| 20260507035711 | 48 | 59 | 0.9 | 1.7 | 0.00 | 0.00 | 0.00 | 88 | 1010.8 |
| 20260507034210 | 48 | 56 | 0.9 | 1.7 | 0.00 | 0.00 | 0.00 | 88 | 1010.8 |
| 20260507032710 | 48 | 343 | 0.9 | 0.9 | 0.00 | 0.00 | 0.00 | 88 | 1010.5 |
| 20260507031209 | 48 | 84 | 0.9 | 2.6 | 0.00 | 0.00 | 0.00 | 88 | 1010.5 |
| 20260507025708 | 48 | 17 | 0.0 | 0.0 | 0.00 | 0.00 | 0.00 | 88 | 1010.1 |
| 20260507024207 | 48 | 8 | 0.0 | 0.9 | 0.00 | 0.00 | 0.00 | 88 | 1010.1 |
| 20260507022706 | 48 | 62 | 0.9 | 0.9 | 0.00 | 0.00 | 0.00 | 89 | 1010.5 |
| 20260507021206 | 48 | 55 | 0.9 | 0.9 | 0.00 | 0.00 | 0.00 | 90 | 1010.1 |
| 20260507015704 | 48 | 54 | 0.9 | 0.9 | 0.00 | 0.00 | 0.00 | 90 | 1010.1 |
| 20260507014204 | 48 | 327 | 2.6 | 5.2 | 0.00 | 0.00 | 0.00 | 90 | 1009.8 |
| 20260507012703 | 48 | 56 | 0.0 | 0.9 | 0.00 | 0.00 | 0.00 | 90 | 1009.8 |
| 20260507011202 | 48 | 334 | 2.6 | 3.5 | 0.00 | 0.00 | 0.00 | 90 | 1009.8 |
| 20260507005700 | 48 | 334 | 0.0 | 1.7 | 0.00 | 0.00 | 0.00 | 90 | 1009.8 |
| 20260507004159 | 48 | 16 | 0.9 | 0.9 | 0.00 | 0.00 | 0.00 | 90 | 1009.8 |
| 20260507002658 | 48 | 352 | 0.9 | 0.9 | 0.00 | 0.00 | 0.00 | 90 | 1009.5 |
| 20260507001157 | 48 | 73 | 0.0 | 0.0 | 0.00 | 0.00 | 0.00 | 91 | 1009.5 |
| 20260506235656 | 48 | 9 | 0.9 | 0.9 | 0.00 | 0.00 | 0.00 | 91 | 1009.5 |
| 20260506234155 | 48 | 45 | 0.0 | 0.0 | 0.00 | 0.00 | 0.00 | 91 | 1009.1 |
| 20260506232654 | 48 | 333 | 1.7 | 2.6 | 0.00 | 0.00 | 0.00 | 91 | 1009.5 |
| 20260506231154 | 48 | 6 | 0.9 | 0.9 | 0.00 | 0.00 | 0.00 | 92 | 1009.5 |
| 20260506225652 | 48 | 2 | 1.7 | 1.7 | 0.00 | 0.00 | 0.00 | 92 | 1009.1 |
| 20260506224151 | 48 | 45 | 0.0 | 0.0 | 0.00 | 0.00 | 0.00 | 92 | 1009.1 |
| 20260506222650 | 49 | 356 | 0.9 | 2.6 | 0.00 | 0.00 | 0.00 | 92 | 1009.1 |
| 20260506221149 | 49 | 342 | 0.0 | 0.0 | 0.00 | 0.00 | 0.00 | 92 | 1009.1 |
| 20260506215648 | 49 | 10 | 0.9 | 0.9 | 0.00 | 0.00 | 0.38 | 92 | 1008.8 |
| 20260506214147 | 49 | 11 | 0.0 | 0.0 | 0.07 | 0.00 | 0.38 | 92 | 1008.8 |
| 20260506212647 | 49 | 4 | 0.0 | 0.0 | 0.00 | 0.00 | 0.37 | 92 | 1008.8 |
| 20260506211146 | 49 | 349 | 0.0 | 0.0 | 0.00 | 0.00 | 0.37 | 92 | 1008.4 |
| 20260506205644 | 49 | 32 | 0.0 | 0.9 | 0.05 | 0.00 | 0.37 | 91 | 1008.1 |
| 20260506204144 | 49 | 24 | 0.9 | 1.7 | 0.07 | 0.00 | 0.36 | 91 | 1008.4 |
| 20260506202642 | 49 | 337 | 0.0 | 0.9 | 0.00 | 0.00 | 0.35 | 91 | 1008.4 |
| 20260506201141 | 49 | 349 | 0.0 | 0.0 | 0.00 | 0.00 | 0.35 | 91 | 1008.1 |
| 20260506195640 | 49 | 55 | 0.0 | 0.9 | 0.00 | 0.00 | 0.35 | 91 | 1008.1 |
| 20260506194139 | 49 | 343 | 2.6 | 3.5 | 0.00 | 0.00 | 0.35 | 91 | 1008.1 |
| 20260506192638 | 49 | 325 | 1.7 | 2.6 | 0.00 | 0.00 | 0.35 | 92 | 1007.8 |
| 20260506191137 | 49 | 7 | 0.9 | 1.7 | 0.00 | 0.00 | 0.35 | 92 | 1007.8 |
| 20260506185637 | 49 | 337 | 0.9 | 0.9 | 0.00 | 0.00 | 0.35 | 92 | 1007.4 |
| 20260506184136 | 49 | 343 | 1.7 | 2.6 | 0.00 | 0.00 | 0.35 | 92 | 1007.4 |
| 20260506182634 | 49 | 0 | 0.0 | 0.0 | 0.05 | 0.00 | 0.35 | 92 | 1007.1 |
| 20260506181134 | 49 | 318 | 0.0 | 0.0 | 0.00 | 0.00 | 0.34 | 92 | 1006.7 |
| 20260506175633 | 49 | 19 | 0.9 | 0.9 | 0.00 | 0.00 | 0.34 | 92 | 1007.1 |
| 20260506174132 | 49 | 95 | 0.0 | 0.9 | 0.07 | 0.00 | 0.34 | 91 | 1007.1 |
| 20260506172631 | 49 | 58 | 0.0 | 0.0 | 0.00 | 0.00 | 0.33 | 91 | 1006.7 |
| 20260506171129 | 49 | 32 | 1.7 | 2.6 | 0.00 | 0.00 | 0.33 | 90 | 1006.7 |
| 20260506165628 | 50 | 81 | 0.0 | 0.0 | 0.00 | 0.00 | 0.33 | 90 | 1006.4 |